| time (UTC) | temp C | wind direction | speed KPH | gust KPH | rain 1hr cm | rain 24hr cm | rain mn cm | humidity % | barometer mb |
| 20260504204551 | 16 | 302 | 0.0 | 0.0 | 0.00 | 0.36 | 0.18 | 96 | 1016.8 |
| 20260504203555 | 16 | 302 | 0.0 | 4.8 | 0.00 | 0.36 | 0.18 | 96 | 1016.6 |
| 20260504201358 | 16 | 232 | 1.6 | 8.0 | 0.00 | 0.36 | 0.18 | 96 | 1016.1 |
| 20260504200352 | 16 | 245 | 0.0 | 4.8 | 0.00 | 0.36 | 0.18 | 96 | 1016.0 |
| 20260504195340 | 17 | 255 | 0.0 | 3.2 | 0.00 | 0.33 | 0.15 | 96 | 1015.9 |
| 20260504194317 | 17 | 244 | 0.0 | 0.0 | 0.00 | 0.33 | 0.15 | 97 | 1016.0 |
| 20260504193306 | 17 | 337 | 0.0 | 0.0 | 0.00 | 0.33 | 0.15 | 97 | 1015.7 |
| 20260504192306 | 17 | 337 | 0.0 | 3.2 | 0.00 | 0.33 | 0.15 | 97 | 1015.5 |
| 20260504191259 | 17 | 266 | 0.0 | 1.6 | 0.00 | 0.33 | 0.15 | 97 | 1015.4 |
| 20260504190324 | 17 | 269 | 0.0 | 6.4 | 0.00 | 0.33 | 0.15 | 97 | 1015.3 |
| 20260504185317 | 17 | 283 | 0.0 | 0.0 | 0.00 | 0.33 | 0.15 | 97 | 1015.3 |
| 20260504182037 | 18 | 306 | 0.0 | 3.2 | 0.00 | 0.33 | 0.15 | 97 | 1015.2 |
| 20260504181015 | 18 | 287 | 1.6 | 8.0 | 0.00 | 0.33 | 0.15 | 97 | 1015.1 |
| 20260504175949 | 18 | 335 | 3.2 | 9.7 | 0.00 | 0.33 | 0.15 | 97 | 1015.2 |
| 20260504174915 | 18 | 298 | 3.2 | 11.3 | 0.00 | 0.33 | 0.15 | 96 | 1015.1 |
| 20260504173851 | 18 | 321 | 3.2 | 11.3 | 0.00 | 0.33 | 0.15 | 96 | 1015.0 |
| 20260504172820 | 18 | 309 | 3.2 | 14.5 | 0.00 | 0.33 | 0.15 | 96 | 1014.8 |
| 20260504171824 | 18 | 333 | 4.8 | 14.5 | 0.00 | 0.33 | 0.15 | 96 | 1015.1 |
| 20260504170839 | 18 | 328 | 4.8 | 11.3 | 0.00 | 0.33 | 0.15 | 96 | 1015.2 |
| 20260504150251 | 18 | 310 | 1.6 | 6.4 | 0.00 | 0.18 | 0.00 | 96 | 1015.0 |
| 20260504140953 | 18 | 0 | 1.6 | 6.4 | 0.00 | 0.18 | 0.00 | 96 | 1014.5 |
| 20260504110546 | 19 | 319 | 0.0 | 3.2 | 0.00 | 0.10 | 0.10 | 91 | 1015.7 |
| 20260504081607 | 22 | 300 | 0.0 | 6.4 | 0.00 | 0.00 | 0.00 | 74 | 1014.8 |
| 20260504080600 | 23 | 312 | 0.0 | 4.8 | 0.00 | 0.00 | 0.00 | 73 | 1014.8 |
| 20260504045905 | 23 | 89 | 0.0 | 3.2 | 0.00 | 0.00 | 0.00 | 83 | 1014.0 |
| 20260504043719 | 23 | 74 | 1.6 | 4.8 | 0.00 | 0.00 | 0.00 | 82 | 1014.1 |
| 20260504042647 | 23 | 150 | 1.6 | 4.8 | 0.00 | 0.00 | 0.00 | 82 | 1014.2 |
| 20260504041636 | 23 | 144 | 1.6 | 4.8 | 0.00 | 0.00 | 0.00 | 82 | 1014.2 |
| 20260504040631 | 23 | 129 | 1.6 | 4.8 | 0.00 | 0.00 | 0.00 | 82 | 1014.3 |
| 20260504035600 | 23 | 165 | 1.6 | 6.4 | 0.00 | 0.00 | 0.00 | 81 | 1014.5 |
| 20260504034602 | 23 | 157 | 3.2 | 6.4 | 0.00 | 0.00 | 0.00 | 81 | 1014.6 |
| 20260504033613 | 23 | 165 | 3.2 | 6.4 | 0.00 | 0.00 | 0.00 | 82 | 1014.5 |
| 20260504032552 | 23 | 142 | 3.2 | 6.4 | 0.00 | 0.00 | 0.00 | 82 | 1014.7 |
| 20260504030407 | 23 | 164 | 3.2 | 8.0 | 0.00 | 0.00 | 0.00 | 81 | 1014.9 |
| 20260504025336 | 23 | 96 | 1.6 | 8.0 | 0.00 | 0.00 | 0.00 | 79 | 1015.0 |
| 20260504024357 | 24 | 39 | 3.2 | 8.0 | 0.00 | 0.00 | 0.00 | 78 | 1015.1 |
| 20260504023334 | 24 | 69 | 1.6 | 8.0 | 0.00 | 0.00 | 0.00 | 78 | 1015.2 |
| 20260504021247 | 24 | 139 | 3.2 | 9.7 | 0.00 | 0.00 | 0.00 | 75 | 1015.6 |
| 20260504020303 | 23 | 91 | 1.6 | 8.0 | 0.00 | 0.00 | 0.00 | 75 | 1015.8 |
| 20260504015311 | 24 | 79 | 3.2 | 8.0 | 0.00 | 0.00 | 0.00 | 76 | 1016.1 |
| 20260504014323 | 24 | 86 | 3.2 | 8.0 | 0.00 | 0.00 | 0.00 | 76 | 1016.2 |
| 20260504013347 | 25 | 101 | 3.2 | 8.0 | 0.00 | 0.00 | 0.00 | 73 | 1016.4 |
| 20260504012338 | 25 | 122 | 1.6 | 8.0 | 0.00 | 0.00 | 0.00 | 72 | 1016.4 |
| 20260504011309 | 25 | 68 | 1.6 | 12.9 | 0.00 | 0.00 | 0.00 | 70 | 1016.5 |
| 20260504010250 | 25 | 49 | 3.2 | 12.9 | 0.00 | 0.00 | 0.00 | 67 | 1016.6 |
| 20260504005227 | 25 | 8 | 3.2 | 11.3 | 0.00 | 0.00 | 0.00 | 65 | 1016.7 |
| 20260504004226 | 24 | 324 | 3.2 | 9.7 | 0.00 | 0.00 | 0.00 | 69 | 1016.8 |
| 20260504003218 | 23 | 56 | 4.8 | 9.7 | 0.00 | 0.00 | 0.00 | 71 | 1016.8 |
| 20260504001109 | 24 | 328 | 1.6 | 8.0 | 0.00 | 0.00 | 0.00 | 71 | 1016.9 |
| 20260504000045 | 23 | 319 | 3.2 | 8.0 | 0.00 | 0.00 | 0.00 | 73 | 1016.9 |
| 20260503235109 | 23 | 48 | 3.2 | 8.0 | 0.00 | 0.00 | 0.00 | 76 | 1017.0 |
| 20260503234055 | 23 | 41 | 1.6 | 9.7 | 0.00 | 0.00 | 0.00 | 77 | 1017.0 |
| 20260503233024 | 22 | 49 | 1.6 | 12.9 | 0.00 | 0.00 | 0.00 | 78 | 1017.0 |
| 20260503232006 | 22 | 348 | 1.6 | 12.9 | 0.00 | 0.00 | 0.00 | 78 | 1017.0 |
| 20260503231015 | 21 | 49 | 1.6 | 6.4 | 0.00 | 0.00 | 0.00 | 80 | 1016.9 |
| 20260503230034 | 21 | 338 | 1.6 | 6.4 | 0.00 | 0.00 | 0.00 | 82 | 1016.9 |
| 20260503225053 | 21 | 321 | 0.0 | 4.8 | 0.00 | 0.00 | 0.00 | 86 | 1016.9 |
| 20260503224038 | 20 | 329 | 0.0 | 4.8 | 0.00 | 0.00 | 0.00 | 89 | 1016.8 |
| 20260503223033 | 19 | 359 | 1.6 | 6.4 | 0.00 | 0.00 | 0.00 | 90 | 1017.0 |
| 20260503220903 | 18 | 275 | 0.0 | 4.8 | 0.00 | 0.00 | 0.00 | 92 | 1017.1 |
| 20260503215842 | 17 | 318 | 0.0 | 4.8 | 0.00 | 0.00 | 0.00 | 93 | 1017.1 |
| 20260503214835 | 17 | 317 | 1.6 | 6.4 | 0.00 | 0.00 | 0.00 | 94 | 1017.1 |
| 20260503213843 | 17 | 318 | 1.6 | 6.4 | 0.00 | 0.00 | 0.00 | 94 | 1017.0 |
| 20260503211642 | 16 | 323 | 0.0 | 4.8 | 0.00 | 0.00 | 0.00 | 94 | 1016.7 |
| 20260503210645 | 16 | 286 | 0.0 | 0.0 | 0.00 | 0.00 | 0.00 | 94 | 1016.5 |